Other Public Products
Issued by NWS Grand Forks, ND

Home | Current Version | Previous Version | Text Only | Print | Product List | Glossary Off
Versions: 1 2 3 4 5 6 7 8 9 10 11 12 13 14 15 16 17 18 19 20 21 22 23 24 25 26 27 28 29 30 31 32 33 34 35 36 37 38 39 40 41 42 43 44 45 46 47 48 49 50

000
FPUS83 KFGF 261231
OPUFGF
PRAIRIE TO PINES WEATHER ROUNDUP
NATIONAL WEATHER SERVICE EASTERN NORTH DAKOTA/GRAND FORKS ND
700 AM CDT THU MAY 26 2016

 **SATELLITE DATA USED TO AUGMENT SKY COVER AT AUTOMATED STATIONS**
 *****  WEATHER ACROSS EASTERN NORTH DAKOTA  *****

CITY           SKY/WX    TMP DP  RH WIND       PRES   REMARKS
GRAND FORKS    CLOUDY    58  55  90 SW9       29.72R
6HR MIN TEMP:  56; 6HR MAX TEMP:  58;

GRAND FORKS AF CLOUDY    57  57 100 SW7       29.73R
GRAND CITY NWS   N/A     57 N/A N/A W6          N/A
BUXTON           N/A     59  58  99 W6          N/A
DEVILS LAKE    CLOUDY    56  55  97 W6        29.75R
6HR MIN TEMP:  53; 6HR MAX TEMP:  56;

FARGO          SUNNY     56  53  90 SW6       29.75R
6HR MIN TEMP:  51; 6HR MAX TEMP:  56;

WAHPETON ARPT  SUNNY     54  50  87 SW5       29.79S
$$

 *****  WEATHER ACROSS CENTRAL AND WESTERN NORTH DAKOTA  *****

CITY           SKY/WX    TMP DP  RH WIND       PRES   REMARKS
JAMESTOWN      CLOUDY    55  53  93 W13       29.77R
6HR MIN TEMP:  54; 6HR MAX TEMP:  57;

BISMARCK       CLEAR     47  44  90 SW6       29.82R
6HR MIN TEMP:  45; 6HR MAX TEMP:  51;

MINOT          CLOUDY    58  54  86 W8        29.76R
6HR MIN TEMP:  57; 6HR MAX TEMP:  59;

MINOT AFB      CLOUDY    55  54  94 W7        29.75S
6HR MIN TEMP:  51; 6HR MAX TEMP:  56;

GARRISON         N/A     50  48  93 W9        29.79R
6HR MIN TEMP:  49; 6HR MAX TEMP:  55;

WILLISTON      CLOUDY    48  47  96 W6        29.81F FOG
6HR MIN TEMP:  44; 6HR MAX TEMP:  48;

DICKINSON      PTCLDY    44  42  93 W6        29.80S
6HR MIN TEMP:  39; 6HR MAX TEMP:  44;

HETTINGER      PTCLDY    39  37  92 CALM      29.85F
6HR MIN TEMP:  35; 6HR MAX TEMP:  41;

$$

 *****  OTHER OBSERVATIONS NORTHEAST NORTH DAKOTA  *****

CITY           SKY/WX    TMP DP  RH WIND       PRES   REMARKS
WALHALLA       FAIR      55  55 100 MISG      29.68S
LANGDON        CLOUDY    55  55 100 NW12      29.71S
CAVALIER       CLOUDY    57  57 100 W9        29.67S
GRAFTON        FAIR      59  59 100 W12       29.71S
CANDO          CLOUDY    55  55 100 N7        29.76S
FORT TOTTEN    NOT AVBL
ROLLA          CLOUDY    54  54 100 N9        29.77R
RUGBY          CLOUDY    54  54 100 NE10      29.75S FOG
 ***** THE ABOVE OBSERVATIONS ARE NON NWS ARE NOT QUALITY
        CONTROLLED AND MAY MIS-REPORT RAIN FOR SNOW...
$$

 *****  OTHER OBSERVATIONS SOUTHEAST NORTH DAKOTA *****

CITY           SKY/WX    TMP DP  RH WIND       PRES   REMARKS
COOPERSTOWN    NOT AVBL
VALLEY CITY    CLOUDY    55  55 100 W13       29.79R FOG
OAKES            N/A    N/A N/A N/A MISG        N/A
GWINNER        FAIR      55  54  94 SW13      29.80S
BUFFALO          N/A     55  53  92 CALM        N/A
WYNDMERE         N/A     55  54  94 W13         N/A
 ***** THE ABOVE OBSERVATIONS ARE NON NWS ARE NOT QUALITY
       CONTROLLED AND MAY MIS-REPORT RAIN FOR SNOW...
$$

  *****  WEATHER ACROSS NORTHERN MINNESOTA  *****

CITY           SKY/WX    TMP DP  RH WIND       PRES   REMARKS
FLAG ISLAND    CLOUDY    55  55 100 S18       29.70R
WARROAD        CLOUDY    59  55  88 S8        29.71R
ROSEAU         CLOUDY    59  54  82 S12       29.70R
HALLOCK        CLOUDY    59  55  88 SW13      29.66F
THF RVR FALLS  CLOUDY    57  54  88 S6        29.74S
6HR MIN TEMP:  55; 6HR MAX TEMP:  57; 6HR PCP:  0.01;

HALSTAD        NOT AVBL
FOSSTON        MOSUNNY   55  54  94 S7        29.75F FOG
BAUDETTE       CLOUDY    55  53  93 SE10      29.72R
6HR MIN TEMP:  53; 6HR MAX TEMP:  58; 6HR PCP:  0.01;

WASKISH        CLOUDY    57  55  94 S3        29.74S
CROOKSTON      MOSUNNY   57  57 100 SW7       29.74S
$$
  *****  WEATHER ACROSS CENTRAL AND WEST MINNESOTA  *****

CITY           SKY/WX    TMP DP  RH WIND       PRES   REMARKS
BEMIDJI        CLOUDY    56  55  99 SW3       29.74F
PARK RAPIDS    CLOUDY    59  56  89 W7        29.75S FOG
6HR MIN TEMP:  58; 6HR MAX TEMP:  60;

WADENA         PTSUNNY   55  54  94 W7        29.75F FOG
DETROIT LAKES  SUNNY     55  54  94 SW6       29.78S
MOORHEAD       SUNNY     54  52  94 S9        29.77R
FERGUS FALLS   SUNNY     55  55 100 W6        29.76F
ELBOW LAKE     FOG       53  53 100 SW3       29.79F VSB<1/4
6HR MIN TEMP:  51; 6HR MAX TEMP:  64;

MORRIS MN      SUNNY     57  54  88 CALM      29.79F
STAPLES        MOSUNNY   55  54  94 SW6       29.77R
WHEATON        SUNNY     59  55  88 SW3       29.81F
$$
  *****  WEATHER ELSEWHERE ACROSS MINNESOTA  *****

CITY           SKY/WX    TMP DP  RH WIND       PRES   REMARKS
DULUTH         FOG       45  44  97 E8        29.81R VSB 1/8
6HR MIN TEMP:  43; 6HR MAX TEMP:  47;

INTRNTL FALLS  CLOUDY    55  53  93 SE7       29.77S FOG
6HR MIN TEMP:  53; 6HR MAX TEMP:  56; 6HR PCP:  0.14;

ELY            CLOUDY    55  54  94 SE3       29.80S
CLOQUET        FOG       45  43  93 E6        29.80F VSB 1/4
BRAINERD       CLOUDY    59  59 100 S3        29.78R FOG
6HR MIN TEMP:  55; 6HR MAX TEMP:  59;

HIBBING        FOG       50  50 100 SE6       29.79R VSB 1/4
6HR MIN TEMP:  46; 6HR MAX TEMP:  50;

ALEXANDRIA     CLOUDY    58  53  84 W8        29.81R
6HR MIN TEMP:  55; 6HR MAX TEMP:  68;

SAINT CLOUD    CLOUDY    61  61 100 S5        29.78R FOG
6HR MIN TEMP:  58; 6HR MAX TEMP:  60;

MINNEAPOLIS    CLOUDY    61  57  87 W6        29.79R
6HR MIN TEMP:  61; 6HR MAX TEMP:  67; 6HR PCP:  0.27;

$$

  *****  WEATHER ACROSS SOUTH DAKOTA  *****

CITY           SKY/WX    TMP DP  RH WIND       PRES   REMARKS
SIOUX FALLS    MOSUNNY   56  51  84 N5        29.85R
6HR MIN TEMP:  51; 6HR MAX TEMP:  62;

BROOKINGS      SUNNY     53  50  89 NW8       29.85S
WATERTOWN      SUNNY     56  49  77 W9        29.84R
6HR MIN TEMP:  55; 6HR MAX TEMP:  62;

HURON          PTCLDY    54  51  90 CALM      29.86R
6HR MIN TEMP:  48; 6HR MAX TEMP:  58;

SISSETON         N/A     57  51  80 W14       29.78S
ABERDEEN       CLEAR     50  47  89 SE3       29.85R
6HR MIN TEMP:  47; 6HR MAX TEMP:  55;

MITCHELL       PTCLDY    56  52  86 W5        29.88R
PIERRE         CLEAR     50  48  93 SW6       29.85R
6HR MIN TEMP:  46; 6HR MAX TEMP:  55;

MOBRIDGE       CLEAR     50  45  83 CALM      29.82R
RAPID CITY     CLEAR     47  42  83 NW8       29.90R
6HR MIN TEMP:  44; 6HR MAX TEMP:  51;

$$

  *****  SOME WEATHER IN NEARBY STATES *****

CITY           SKY/WX    TMP DP  RH WIND       PRES   REMARKS
GLASGOW MT     PTCLDY    44  42  93 NW7       29.84R
6HR MIN TEMP:  43; 6HR MAX TEMP:  50;

GREAT FALLS MT CLOUDY    46  41  82 W3        29.95S
6HR MIN TEMP:  42; 6HR MAX TEMP:  47;

CHEYENNE WY    PTCLDY    39  32  76 NW7       30.02S
6HR MIN TEMP:  37; 6HR MAX TEMP:  43;

SCOTTSBLUFF NE CLEAR     43  39  86 NW7       29.95R
6HR MIN TEMP:  42; 6HR MAX TEMP:  50;

OMAHA NE       MOSUNNY   60  56  86 CALM      29.88R
6HR MIN TEMP:  59; 6HR MAX TEMP:  72; 6HR PCP:  0.01;

DES MOINES IA  MOSUNNY   62  58  86 S7        29.88S
6HR MIN TEMP:  62; 6HR MAX TEMP:  73; 6HR PCP:  0.47;

DAVENPORT IA   CLOUDY    62  60  93 E8        29.93F
6HR MIN TEMP:  61; 6HR MAX TEMP:  73; 6HR PCP:  0.55;

CHICAGO IL     CLOUDY    69  66  90 S10       29.92R
6HR MIN TEMP:  62; 6HR MAX TEMP:  69;

EAU CLAIRE WI  LGT RAIN  61  59  93 W8        29.76F
6HR MIN TEMP:  56; 6HR MAX TEMP:  63; 6HR PCP:  0.14;

LA CROSSE WI   RAIN      61  59  93 SE7       29.85F
6HR MIN TEMP:  61; 6HR MAX TEMP:  67; 6HR PCP:  0.24;

$$

  *****  SOME NATIONAL WEATHER *****

CITY           SKY/WX    TMP DP  RH WIND       PRES   REMARKS
LA GUARDIA NY  PTSUNNY   77  58  51 CALM      30.11R
6HR MIN TEMP:  72; 6HR MAX TEMP:  79;                              C1F1C2F2C3F3C4F4C5F5C6F6C7F7C8F8C9F9CaFaCbFbCcFcCdFdCe!


USA.gov is the U.S. government's official web portal to all federal, state and local government web resources and services.